CW5302 Weather Reports


Display with metric or nautical units.
time (UTC)temp
F
wind
direction
speed
MPH
gust
MPH
rain 1hr
in
rain 24hr
in
rain mn
in
humidity
%
barometer
mb
20260508003352 77 40 0.0 2.0 0.00 0.00 0.00 49 1012.4
20260508002324 76 36 0.0 3.0 0.00 0.00 0.00 48 1012.5
20260508001321 77 144 0.0 3.0 0.00 0.00 0.00 49 1012.5
20260508000315 77 59 0.0 5.0 0.00 0.00 0.00 52 1012.5
20260507235310 76 347 1.0 5.0 0.00 0.00 0.00 49 1012.5
20260507234349 77 325 3.0 7.0 0.00 0.00 0.00 49 1012.7
20260507233343 76 306 2.0 6.0 0.00 0.00 0.00 48 1012.7
20260507232338 76 5 1.0 6.0 0.00 0.00 0.00 49 1012.9
20260507231349 76 360 0.0 3.0 0.00 0.00 0.00 50 1013.0
20260507230320 76 319 3.0 7.0 0.00 0.00 0.00 49 1013.0
20260507225353 75 331 2.0 6.0 0.00 0.00 0.00 51 1013.3
20260507224343 74 285 3.0 7.0 0.00 0.00 0.00 52 1013.5
20260507223334 73 320 1.0 7.0 0.00 0.00 0.00 54 1013.5
20260507222346 73 289 2.0 7.0 0.00 0.00 0.00 55 1013.7
20260507221337 73 360 3.0 6.0 0.00 0.00 0.00 56 1014.0
20260507220329 72 313 2.0 8.0 0.00 0.00 0.00 56 1014.0
20260507215341 71 329 2.0 5.0 0.00 0.00 0.00 60 1014.1
20260507214333 70 131 1.0 5.0 0.00 0.00 0.00 62 1014.3
20260507213328 69 101 1.0 5.0 0.00 0.00 0.00 64 1014.3
20260507212326 68 184 0.0 3.0 0.00 0.00 0.00 64 1014.5
20260507211326 67 248 0.0 4.0 0.00 0.00 0.00 65 1014.6
20260507210335 67 327 2.0 5.0 0.00 0.00 0.00 65 1014.6
20260507205330 67 292 3.0 7.0 0.00 0.00 0.00 67 1015.0
20260507204343 66 267 0.0 5.0 0.00 0.00 0.00 67 1015.1
20260507203356 65 20 2.0 5.0 0.00 0.00 0.00 68 1015.1
20260507202347 65 325 2.0 7.0 0.00 0.00 0.00 69 1015.4
20260507201315 64 245 2.0 5.0 0.00 0.00 0.00 71 1015.6
20260507200352 63 302 1.0 7.0 0.00 0.00 0.00 72 1015.6
20260507195320 63 210 0.0 6.0 0.00 0.00 0.00 73 1015.8
20260507194329 62 333 2.0 6.0 0.00 0.00 0.00 72 1016.0
20260507193345 61 282 0.0 6.0 0.00 0.00 0.00 72 1016.0
20260507192334 61 317 1.0 6.0 0.00 0.00 0.00 75 1016.1
20260507191327 60 242 0.0 5.0 0.00 0.00 0.00 76 1016.2
20260507190319 60 227 0.0 3.0 0.00 0.00 0.00 75 1016.2
20260507185334 59 301 1.0 4.0 0.00 0.00 0.00 76 1016.3
20260507184329 59 313 0.0 4.0 0.00 0.00 0.00 78 1016.4
20260507183326 58 303 0.0 4.0 0.00 0.00 0.00 78 1016.4
20260507182336 58 284 1.0 5.0 0.00 0.00 0.00 77 1016.6
20260507181347 58 346 1.0 5.0 0.00 0.00 0.00 78 1016.6
20260507180359 58 309 0.0 5.0 0.00 0.00 0.00 79 1016.6
20260507175329 58 309 0.0 3.0 0.00 0.00 0.00 78 1016.6
20260507174321 57 325 0.0 5.0 0.00 0.00 0.00 78 1016.6
20260507173334 57 82 0.0 0.0 0.00 0.00 0.00 79 1016.6
20260507172324 57 82 0.0 0.0 0.00 0.00 0.00 78 1016.6
20260507171336 57 76 0.0 1.0 0.00 0.00 0.00 81 1016.6
20260507170329 57 74 0.0 0.0 0.00 0.00 0.00 82 1016.6
20260507165320 57 12 0.0 4.0 0.00 0.00 0.00 79 1016.6
20260507164351 57 286 0.0 3.0 0.00 0.00 0.00 80 1016.7
20260507163322 56 344 0.0 2.0 0.00 0.00 0.00 82 1016.7
20260507162316 55 345 0.0 3.0 0.00 0.00 0.00 83 1016.7
20260507161332 55 346 0.0 1.0 0.00 0.00 0.00 85 1016.7
20260507160348 55 346 0.0 1.0 0.00 0.00 0.00 85 1016.7
20260507155321 54 346 0.0 1.0 0.00 0.00 0.00 87 1016.7
20260507154333 54 347 0.0 2.0 0.00 0.00 0.00 87 1016.7
20260507153323 53 348 1.0 4.0 0.00 0.00 0.00 88 1016.7
20260507152318 53 350 0.0 3.0 0.00 0.00 0.00 89 1016.8
20260507151328 53 349 0.0 3.0 0.00 0.00 0.00 89 1016.7
20260507150337 53 355 0.0 2.0 0.00 0.00 0.00 88 1016.7
20260507145330 53 355 0.0 2.0 0.00 0.00 0.00 89 1016.7
20260507144324 53 351 0.0 2.0 0.00 0.00 0.00 89 1016.7
20260507143335 53 360 0.0 1.0 0.00 0.00 0.00 89 1016.7
20260507142325 53 360 0.0 0.0 0.00 0.00 0.00 89 1016.6
20260507141316 53 360 0.0 0.0 0.00 0.00 0.00 89 1016.6
20260507140340 52 360 0.0 0.0 0.00 0.00 0.00 89 1016.6
20260507135336 52 360 0.0 0.0 0.00 0.00 0.00 89 1016.4
20260507134327 52 360 0.0 0.0 0.00 0.00 0.00 88 1016.4
20260507133339 53 360 0.0 0.0 0.00 0.00 0.00 88 1016.4
20260507132330 53 360 0.0 0.0 0.00 0.00 0.00 87 1016.4
20260507131320 53 360 0.0 0.0 0.00 0.00 0.00 87 1016.4
20260507130334 53 360 0.0 0.0 0.00 0.00 0.00 87 1016.4
20260507125338 53 360 0.0 2.0 0.00 0.00 0.00 86 1016.4
20260507124329 53 5 0.0 2.0 0.00 0.00 0.00 87 1016.4
20260507123340 53 5 0.0 2.0 0.00 0.00 0.00 87 1016.4
20260507122330 53 24 0.0 0.0 0.00 0.00 0.00 86 1016.5
20260507121321 53 24 0.0 0.0 0.00 0.00 0.00 87 1016.6
20260507120336 53 24 0.0 0.0 0.00 0.00 0.00 87 1016.6
20260507115327 53 24 0.0 0.0 0.00 0.00 0.00 87 1016.7
20260507114321 53 24 0.0 0.0 0.00 0.00 0.00 86 1016.8
20260507113334 53 24 0.0 0.0 0.00 0.00 0.00 86 1016.8
20260507112324 53 24 0.0 0.0 0.00 0.00 0.00 86 1017.0
20260507111336 53 24 0.0 0.0 0.00 0.00 0.00 86 1017.0
20260507110325 53 24 0.0 0.0 0.00 0.00 0.00 86 1017.0
20260507105323 53 24 0.0 0.0 0.00 0.00 0.00 86 1017.1
20260507104325 53 24 0.0 0.0 0.00 0.00 0.00 86 1017.1
20260507103316 53 12 0.0 3.0 0.00 0.00 0.00 85 1017.1
20260507102350 54 36 0.0 0.0 0.00 0.00 0.00 86 1017.2
20260507101340 54 16 0.0 0.0 0.00 0.00 0.00 86 1017.2
20260507100335 54 16 0.0 0.0 0.00 0.00 0.00 86 1017.2
20260507095328 54 16 0.0 0.0 0.00 0.00 0.00 86 1017.4
20260507094323 54 16 0.0 3.0 0.00 0.00 0.00 86 1017.5
20260507093340 54 101 0.0 0.0 0.00 0.00 0.00 86 1017.5
20260507092328 54 101 0.0 0.0 0.00 0.00 0.00 86 1017.7
20260507091340 54 101 0.0 0.0 0.00 0.00 0.00 86 1017.7
20260507090330 53 103 0.0 0.0 0.00 0.00 0.00 86 1017.7
20260507085320 54 103 0.0 0.0 0.00 0.00 0.00 86 1017.7
20260507084317 54 105 0.0 0.0 0.00 0.00 0.00 86 1017.8
20260507083328 54 105 0.0 0.0 0.00 0.00 0.00 86 1017.8
20260507082323 54 109 0.0 0.0 0.00 0.00 0.00 87 1017.8
20260507081333 54 48 0.0 0.0 0.00 0.00 0.00 87 1017.8
20260507080324 53 47 0.0 0.0 0.00 0.00 0.00 88 1017.8
20260507075335 53 49 0.0 0.0 0.00 0.00 0.00 89 1017.8
20260507074330 53 49 0.0 0.0 0.00 0.00 0.00 90 1017.9
20260507073320 53 49 0.0 0.0 0.00 0.00 0.00 89 1017.9
20260507072351 53 49 0.0 1.0 0.00 0.00 0.00 89 1017.8
20260507071354 53 32 0.0 0.0 0.00 0.00 0.00 89 1017.9
20260507070326 53 32 0.0 0.0 0.00 0.00 0.00 89 1017.9
20260507065318 53 32 0.0 0.0 0.00 0.00 0.00 88 1017.8
20260507064329 53 32 0.0 0.0 0.00 0.00 0.00 87 1017.8
20260507063320 53 32 0.0 7.0 0.00 0.00 0.00 87 1017.8
20260507062335 54 355 0.0 3.0 0.00 0.00 0.00 87 1017.8
20260507061328 54 68 0.0 0.0 0.00 0.00 0.00 87 1017.7
20260507060320 54 51 0.0 1.0 0.00 0.00 0.00 86 1017.7
20260507055332 54 77 0.0 0.0 0.00 0.00 0.00 86 1017.7
20260507054322 54 269 0.0 0.0 0.00 0.00 0.00 85 1017.7
20260507053317 55 269 0.0 0.0 0.00 0.00 0.00 85 1017.7
20260507052327 55 269 0.0 0.0 0.00 0.00 0.00 85 1017.7
20260507051320 55 269 0.0 1.0 0.00 0.00 0.00 85 1017.6
20260507050353 56 269 0.0 0.0 0.00 0.00 0.00 84 1017.6
20260507045327 56 269 0.0 0.0 0.00 0.00 0.00 83 1017.5
20260507044320 57 288 0.0 0.0 0.00 0.00 0.00 83 1017.3
20260507043332 57 288 0.0 0.0 0.00 0.00 0.00 81 1017.3
20260507042322 58 288 0.0 0.0 0.00 0.00 0.00 81 1017.1
20260507041316 58 286 0.0 1.0 0.00 0.00 0.00 79 1017.1
20260507040326 59 298 0.0 0.0 0.00 0.00 0.00 78 1017.1
20260507035339 59 298 0.0 3.0 0.00 0.00 0.00 77 1016.9
20260507034314 60 306 0.0 7.0 0.00 0.00 0.00 76 1016.7
20260507033332 60 312 1.0 5.0 0.00 0.00 0.00 75 1016.7
20260507032324 61 347 0.0 3.0 0.00 0.00 0.00 74 1016.7
20260507031320 62 334 0.0 5.0 0.00 0.00 0.00 73 1016.5
20260507030329 62 349 0.0 5.0 0.00 0.00 0.00 72 1016.5
20260507025320 63 331 2.0 7.0 0.00 0.00 0.00 70 1016.3
20260507024333 64 329 2.0 9.0 0.00 0.00 0.00 69 1016.2
20260507023324 65 355 1.0 5.0 0.00 0.00 0.00 68 1016.2
20260507022317 66 323 0.0 7.0 0.00 0.00 0.00 68 1016.1
20260507021328 66 325 2.0 11.0 0.00 0.00 0.00 65 1016.1
20260507020320 67 299 1.0 7.0 0.00 0.00 0.00 64 1016.1
20260507015332 68 304 0.0 10.0 0.00 0.00 0.00 62 1016.1
20260507014325 70 295 3.0 9.0 0.00 0.00 0.00 59 1015.9
20260507013340 71 335 1.0 11.0 0.00 0.00 0.00 58 1015.9
20260507012334 73 332 5.0 11.0 0.00 0.00 0.00 54 1015.6
20260507011324 75 338 3.0 9.0 0.00 0.00 0.00 54 1015.6
20260507010317 75 331 2.0 9.0 0.00 0.00 0.00 51 1015.6
20260507005331 76 345 2.0 9.0 0.00 0.00 0.00 53 1015.6